SCP
1 1 1 1 1 0 0 0 0 0 0 0 0 0 0 0 0 0 0 0 0 0 0 0 0 0 0 0 0 0 0 0 0 0 0 0 0 0 0 0 0 0 0
0 1 1 0 0 0 0 0 0 0 0 0 0 0 0 0 0 0 0 0 0 0 0 0 0 0 0 0 0 0 0 0 0 0 0 0 0 0 0 0 0 0 0
0 0 0 0 0 0 0 0 0 0 0 0 0 0 0 0 0 0 0 0 0 0 0 0 0 0 0 0 0 0 0 0 0 0 0 0 0 0 0 0 0 0 0
0 0 0 0 0 0 0 0 0 0 0 0 0 0 0 0 0 0 0 0 0 0 0 0 0 0 0 0 0 0 0 0 0 0 0 0 0 0 0 0 0 0 0
0 0 0 0 0 0 0 0 0 0 0 0 0 0 0 0 0 0 0 0 0 0 0 0 0 0 0 0 0 0 0 0 0 0 0 0 0 0 0 0 0 0 0
0 0 0 0 0 0 0 0 0 0 0 0 0 0 0 0 0 0 0 0 0 0 0 0 0 0 0 0 0 0 0 0 0 0 0 0 0 0 0 0 0 0 0
0 0 0 0 0 0 0 0 0 0 0 0 0 0 0 0 0 0 0 0 0 0 0 0 0 0 0 0 0 0 0 0 0 0 0 0 0 0 0 0 0 0 0
0 0 0 0 0 0 0 0 0 0 0 0 0 0 0 0 0 0 0 0 0 0 0 0 0 0 0 0 0 0 0 0 0 0 0 0 0 0 0 0 0 0 -0
0 0 0 0 0 0 0 0 0 0 0 0 0 0 0 0 0 0 0 0 0 0 0 0 0 0 0 0 0 0 0 0 0 0 0 0 0 0 0 0 0 0 0
0 0 0 0 0 0 0 0 0 0 0 0 0 0 0 0 0 0 0 0 0 0 0 0 0 0 0 0 0 0 0 0 0 0 0 0 0 0 0 0 0 0 0
0 0 0 0 0 0 0 0 0 0 0 0 0 0 0 0 0 0 0 0 0 0 0 0 0 0 0 0 0 0 0 0 0 0 0 0 0 0 0 0 0 0 0
0 0 0 0 0 0 0 0 0 0 0 0 0 0 0 0 0 0 0 0 0 0 0 0 0 0 0 0 0 0 0 0 0 0 0 0 0 0 0 0 0 0 0
0 0 0 0 0 0 0 0 0 0 0 0 0 0 0 0 0 0 0 0 0 0 0 0 0 0 0 0 0 0 0 0 0 0 0 0 0 0 0 0 0 0 0
0 0 0 0 0 0 0 0 0 0 0 0 0 0 0 0 0 0 0 0 0 0 0 0 0 0 0 0 0 0 0 0 0 0 0 0 0 0 0 0 0 0 0
0 0 0 0 0 0 0 0 0 0 0 0 0 0 0 0 0 0 0 -0 -0 -0 0 0 0 0 0 0 0 0 0 0 0 0 0 0 0 0 0 0 0 0 0
0 0 0 0 0 0 0 0 0 0 0 0 0 0 0 0 0 0 -0 -0 -0 -0 0 0 0 0 0 0 0 0 0 0 0 0 0 0 0 0 0 0 0 0 0
0 0 0 0 0 0 0 0 0 0 0 0 0 0 0 0 0 0 0 0 0 -0 0 0 0 0 0 0 0 0 0 0 0 0 0 0 0 0 0 0 0 0 0
0 0 0 0 0 0 0 0 0 0 0 0 0 0 0 0 0 0 -0 0 0 0 0 0 0 0 0 0 0 0 0 0 0 0 0 0 0 0 0 0 0 0 0
0 0 0 0 0 0 0 0 0 0 0 0 0 0 0 0 0 0 -0 0 0 0 0 0 0 0 0 0 0 0 0 0 0 0 0 0 0 0 0 0 0 0 0
0 0 0 0 0 0 0 0 0 0 0 0 0 0 0 0 0 0 0 0 0 0 0 0 0 0 0 0 0 0 0 0 0 0 0 0 0 0 0 0 0 0 0
0 0 0 0 0 0 0 0 0 0 0 0 0 0 0 0 0 0 0 0 0 0 0 0 0 0 0 0 0 0 0 0 0 0 0 0 0 0 0 0 0 0 0
0 0 0 0 0 0 0 0 0 0 0 0 0 0 0 0 0 0 0 0 0 0 0 0 0 0 0 0 0 0 0 0 0 0 0 0 0 0 0 0 0 0 0
0 0 0 0 0 0 0 0 0 0 0 0 0 0 0 0 0 0 0 0 0 0 0 0 0 0 0 0 0 0 0 0 0 0 0 0 0 0 0 0 0 0 0
0 0 0 0 0 0 0 0 0 0 0 0 0 0 0 0 0 0 0 0 0 0 0 0 0 0 0 0 0 0 0 0 0 0 0 0 0 0 0 0 0 0 0
0 0 0 0 0 0 0 0 0 0 0 0 0 0 0 0 0 0 0 0 0 0 0 0 0 0 0 0 0 0 0 0 0 0 0 0 0 0 0 0 0 0 0
0 0 0 0 0 0 0 0 0 0 0 0 0 0 0 0 0 0 0 0 0 0 0 0 0 0 0 0 0 0 0 0 0 0 0 0 0 0 0 0 0 0 0
Wind_Speed
7 6 4 2 3 3 2 2 2 3 4 4 4 4 5 5 4 4 3 3 2 3 3 3 4 4 4 4 3 3 3 4 6 5 3 4 4 5 4 4 3 3 3
5 4 2 2 4 4 3 2 1 2 3 4 4 5 5 4 4 4 4 4 5 6 5 5 5 4 4 5 5 5 4 4 6 7 6 4 5 5 5 4 3 3 3
3 5 6 5 5 5 3 1 1 2 3 4 5 5 5 5 5 6 7 7 7 6 6 5 5 5 6 6 6 6 5 5 4 5 5 4 4 5 6 4 4 3 3
2 4 5 4 4 4 3 3 4 5 5 6 6 6 6 7 7 8 8 8 7 7 7 7 7 8 8 7 5 6 6 6 5 4 5 5 5 7 7 6 5 3 3
0 2 5 6 6 7 7 6 5 6 6 6 7 7 7 7 7 8 9 9 9 8 8 8 9 8 8 8 8 8 8 7 6 6 7 7 8 8 8 7 7 5 1
3 4 7 8 8 8 8 7 7 6 7 7 8 8 8 8 9 8 8 10 9 9 8 7 8 7 6 6 7 9 10 9 9 8 8 8 8 8 7 7 7 6 4
3 4 6 9 9 9 9 8 7 7 8 8 8 9 10 9 8 8 7 8 9 8 8 7 8 8 7 7 5 5 8 7 6 8 10 10 10 9 9 8 7 6 4
4 4 6 8 10 9 8 8 7 7 7 7 8 10 10 8 7 7 5 8 9 8 8 8 8 9 9 8 7 8 9 9 9 9 9 9 9 9 9 6 3 2 3
4 4 6 8 10 10 10 9 8 7 8 8 8 9 10 8 5 3 1 7 7 7 7 8 7 8 11 11 5 6 6 5 5 3 3 3 3 7 11 9 9 6 5
5 5 6 8 9 10 10 10 9 8 8 8 8 8 9 8 5 2 2 4 5 5 5 6 10 9 10 12 7 6 6 6 6 4 2 3 5 7 9 11 10 9 7
6 6 7 7 8 8 8 8 8 8 8 8 9 8 7 7 6 3 3 1 3 2 3 3 7 9 9 9 7 6 5 7 5 4 4 6 6 7 8 9 9 8 8
8 8 8 8 8 8 8 8 9 9 10 9 9 8 7 6 6 6 6 5 4 2 1 3 6 6 6 7 6 7 8 8 4 5 5 6 7 7 7 8 7 6 6
9 9 9 9 8 8 9 9 9 9 8 9 9 8 7 7 6 5 5 3 3 1 3 6 4 1 2 3 5 6 6 5 6 6 6 6 6 7 7 6 5 5 3
10 10 9 9 9 9 7 8 8 9 8 8 8 8 8 7 7 7 6 5 5 4 4 5 3 1 1 3 2 1 5 6 6 6 6 6 6 6 6 7 7 7 6
11 10 10 10 9 8 8 5 7 7 6 7 7 8 8 8 6 4 0 2 2 3 3 6 6 5 4 4 4 4 5 5 5 6 6 6 7 7 6 6 6 7 7
11 11 9 9 8 8 9 8 6 4 7 5 3 3 5 9 11 6 4 3 2 1 4 5 4 3 3 4 4 4 5 6 6 6 6 6 7 7 7 6 7 7 7
12 10 9 9 9 9 9 9 9 6 5 5 5 5 9 14 11 8 6 5 3 4 5 4 4 4 3 3 4 4 5 5 5 5 6 6 6 6 6 6 7 7 7
13 11 9 9 9 10 10 10 10 11 11 9 7 9 13 13 11 9 8 8 7 7 5 5 4 4 3 3 3 4 4 4 5 5 5 6 6 6 6 6 6 8 8
14 11 10 10 10 10 10 10 10 12 11 11 12 11 10 10 9 8 8 8 7 7 6 5 4 3 2 2 2 2 3 3 4 4 4 5 5 5 6 6 6 5 6
13 12 11 10 11 11 11 11 10 11 11 11 12 13 13 11 10 10 9 8 6 6 5 5 4 3 3 2 1 1 2 2 3 4 4 4 4 5 5 6 6 6 6
13 13 13 11 11 11 11 11 11 11 11 11 11 12 15 13 11 11 10 9 7 7 6 6 5 6 5 4 4 3 3 3 2 3 4 4 4 5 5 5 6 6 6
13 13 14 13 12 12 12 12 12 12 13 13 11 12 13 11 10 10 9 9 9 8 7 7 6 6 5 5 5 5 5 4 3 2 3 3 4 4 5 5 6 6 6
14 15 15 14 13 13 13 13 13 13 13 13 12 12 13 12 10 10 10 9 9 9 8 8 7 7 6 6 6 6 6 4 3 2 3 3 3 4 5 5 6 6 6
16 16 16 15 14 14 15 14 14 14 14 13 13 12 12 12 12 12 11 10 10 10 9 9 9 11 11 8 7 8 7 4 3 3 3 4 4 3 4 4 5 6 6
16 16 16 15 15 15 15 15 15 15 14 13 12 12 12 12 12 12 12 11 12 11 11 11 9 11 13 14 12 8 7 8 3 3 5 4 4 4 4 5 4 5 6
16 17 15 15 15 15 15 16 15 15 14 13 13 12 12 12 12 12 12 11 11 11 11 11 13 14 13 12 12 9 12 11 8 4 5 5 5 4 4 4 4 5 5
Wind_Direction
326 317 284 225 160 140 132 130 143 164 172 172 176 177 182 189 192 199 180 157 128 88 65 52 39 15 353 344 339 324 316 308 299 304 292 301 302 310 312 287 266 246 227
360 8 20 82 102 89 68 62 122 159 162 160 168 166 165 164 168 157 128 103 87 76 63 54 39 32 17 5 352 352 345 326 307 312 316 317 311 315 310 284 256 246 245
32 55 63 69 83 81 62 56 158 151 146 147 150 146 141 136 124 106 96 86 77 67 58 53 44 33 23 20 2 2 348 340 331 318 332 344 336 344 332 317 269 244 233
52 89 99 103 110 124 157 190 181 156 142 135 132 128 124 117 108 102 96 89 82 76 66 55 43 36 24 9 9 10 359 352 12 10 19 17 10 3 358 345 327 281 240
284 150 158 160 169 170 176 179 166 148 136 131 128 122 115 108 99 100 101 96 92 86 75 67 58 51 42 20 16 14 13 16 27 32 36 30 22 10 4 349 337 329 294
245 195 175 172 177 176 172 167 154 140 134 132 125 116 105 92 79 76 94 98 91 84 78 74 81 63 79 77 54 42 28 23 24 22 36 31 22 11 0 3 1 2 5
234 195 175 172 174 172 165 156 149 142 135 128 123 114 105 98 88 80 74 96 88 77 71 60 56 54 33 60 93 117 72 50 20 19 38 21 17 11 357 14 32 34 15
227 189 169 166 162 158 159 152 149 144 138 134 130 123 119 113 103 98 94 98 91 83 74 68 64 55 32 11 54 63 62 51 36 39 40 32 24 2 350 357 4 79 77
219 187 171 163 159 162 163 159 154 150 144 144 139 137 132 131 132 123 130 113 105 92 77 58 48 57 19 351 34 55 56 65 101 83 15 353 351 4 358 1 3 6 38
213 185 170 166 164 164 161 159 154 151 148 146 138 143 142 139 139 144 272 135 120 118 109 101 68 39 18 1 18 35 36 21 14 37 48 25 27 35 28 16 5 3 10
205 181 172 164 158 153 152 152 151 153 146 138 134 133 133 132 134 110 343 142 126 124 105 89 71 40 28 13 6 30 2 317 337 9 24 26 27 29 24 26 17 8 7
199 185 172 165 161 152 154 154 155 150 147 143 139 137 131 128 115 104 72 49 1 86 54 58 70 48 41 31 32 8 327 313 354 13 17 17 14 14 15 16 19 19 15
196 185 173 167 162 160 162 160 160 167 167 159 157 152 145 136 122 113 106 82 12 10 63 58 50 27 223 117 59 348 339 5 8 7 7 6 4 4 349 351 357 349 338
194 183 175 172 171 168 172 172 176 178 175 170 166 159 153 155 158 164 164 165 173 172 144 135 169 232 169 91 142 37 41 29 0 3 358 354 352 354 358 357 349 346 344
193 184 183 184 180 175 182 173 190 182 176 177 172 168 169 171 135 77 53 151 149 110 165 172 168 157 140 100 79 55 33 26 12 9 2 357 356 357 358 1 351 341 349
194 190 189 189 182 184 175 162 64 81 107 105 101 159 131 120 128 124 105 90 83 301 240 161 141 123 96 73 54 54 48 30 8 7 8 2 357 355 356 357 356 354 356
201 193 194 192 186 192 187 181 167 128 103 122 126 110 128 139 147 159 167 170 189 235 213 152 140 123 102 83 59 44 41 46 11 9 14 6 360 359 3 1 7 359 356
202 194 199 195 193 195 194 191 182 172 169 168 158 141 143 154 164 174 175 184 183 215 197 157 151 139 116 76 55 40 32 30 21 10 17 6 360 1 5 359 13 6 347
202 195 196 199 197 198 195 194 190 184 179 172 163 158 163 166 177 189 199 220 186 186 184 172 169 162 155 124 74 31 25 24 19 346 14 3 355 356 1 354 358 6 334
201 195 189 197 196 195 194 194 190 185 182 177 175 171 169 183 191 185 204 214 202 189 188 189 190 193 202 194 197 285 330 358 349 336 4 352 349 346 348 345 348 347 350
194 183 185 200 198 193 192 193 190 187 186 182 181 172 172 191 196 190 191 194 202 200 199 206 205 208 211 209 225 234 264 306 331 333 335 336 339 336 331 335 339 341 345
191 182 187 200 198 194 192 193 191 190 189 187 182 166 172 205 204 198 198 196 201 206 206 211 223 224 229 229 224 229 243 258 284 305 310 313 312 313 320 328 337 337 336
190 186 185 196 197 189 193 196 194 193 192 191 190 183 183 207 219 217 215 213 210 212 214 216 227 237 231 224 229 240 246 243 248 284 295 292 292 301 312 324 325 324 335
192 190 189 192 195 191 196 199 196 196 197 197 198 198 195 199 213 220 222 222 220 218 220 224 232 238 238 231 226 228 228 216 218 217 235 275 280 286 297 308 314 332 331
193 191 192 192 194 194 195 199 200 200 201 204 205 205 207 207 209 214 217 220 223 226 228 230 234 238 238 232 228 222 148 136 170 232 200 228 244 261 279 294 308 319 323
197 192 193 194 195 197 197 199 201 203 205 207 209 211 212 213 213 215 215 218 221 224 230 235 238 239 236 229 222 180 150 155 164 192 231 216 219 236 257 277 294 301 313